www.pogodaiklimat.ru

Погода и климат >> Архив погоды >> Казахстан >> Мартук


ПОГОДА в Мартуке

  • Прогноз погоды в Мартуке
  • Монитор погоды в Мартуке
  • Климат города

АРХИВ ПОГОДЫ в Мартуке

Время (UTC), дата Ветер
(напр.,м/с)
 
Видим.   Явления Облачность Т
(С)
Тd
(С)
f
(%)
Тe
(С)
Тes
(С)
Комфортность P
(гПа)
Po
(гПа)
Тmin
(С)
Tmax
(С)
R
(мм)
R24
(мм)
S
(см)
18 10.11 штиль 0 50 км ясно -3.9 -5.8 87 -5 -5 1031.8 1008.8 +3.1
21 10.11 штиль 0 50 км ясно -5.8 -6.9 92 -7 -7 1031.8 1008.7
00 11.11 штиль 0 50 км 3/0
[Ci fib]
-6.3 -7.1 94 -7 -7 1031.8 1008.6
03 11.11 В 1 50 км 8/0
[Ac trans Ci fib]
-5.6 -6.3 95 -8 -8 1031.5 1008.4
06 11.11 ЮВ 2 20 км 9/0
[Ac As Ci ing]
-2.9 -4.6 88 -7 -6 1031.1 1008.2 -6.5
09 11.11 ЮВ 2 20 км 10/0
[Ac und]
+0.7 -1.3 86 -3 -2 1029.6 1007.1
12 11.11 ЮВ 2 20 км 10/0
[Ac und]
+1.8 -1.7 78 -1 -1 1028.5 1006.1
15 11.11 ЮВ 1 50 км 10/0
[Ac und]
+0.7 -1.9 83 -1 -1 1028.2 1005.7 +2.4
18 11.11 В 1 50 км 10/0
[Ac und]
+0.8 -1.5 85 -1 -1 1027.3 1004.8 +2.4
21 11.11 ЮВ 2 50 км 10/0
[Ac und]
+0.9 -1.7 83 -3 -3 1026.3 1003.8
00 12.11 В 2 50 км 10/10 600 м
[Sc]
+1.0 -1.6 83 -2 -2 1025.1 1002.7
03 12.11 В 1 50 км 10/10 600 м
[Sc]
+1.1 -1.5 83 -1 -1 1024.5 1002.1
06 12.11 В 2 20 км 10/10 600 м
[Sc]
+2.6 -1.0 77 -0 -0 1023.9 1001.7 +0.7
09 12.11 Ю 1 20 км 10/0
[Ac und]
+4.3 -0.9 69 +3 +4 1023.2 1001.1
12 12.11 штиль 0 20 км {снег} 10/10 600 м
[Sc]
+1.4 +0.9 96 0 0 1022.9 1000.6
15 12.11 штиль 0 50 км 10/10 600 м
[Sc]
+1.2 +0.7 96 -0 -0 1022.9 1000.6 +5.2
18 12.11 штиль 0 50 км 10/10 600 м
[Sc]
+1.3 +0.5 94 0 0 1022.6 1000.2 +5.2 2
21 12.11 штиль 0 50 км 10/10 600 м
[Sc]
+0.7 -0.4 92 -1 -1 1022.6 1000.2
00 13.11 штиль 0 50 км 4/4 600 м
[Sc]
-1.7 -2.3 96 -3 -3 1022.8 1000.2
06 13.11 ЮВ 2 500 м туман ?/? -1.1 -1.3 99 -5 -5 1024.8 1002.2 -4.2
09 13.11 ЮВ 2 20 км в посл. час туман 10/0
[As op]
+1.2 -0.5 88 -2 -2 1024.3 1002.0
12 13.11 В 1 20 км {туман} 10/10 600 м
[Sc]
+2.5 +1.2 91 +1 +1 1023.8 1001.6
15 13.11 В 1 50 км 10/10 600 м
[Sc]
+1.6 +1.1 96 -0 -0 1024.3 1001.9 +2.6
18 13.11 В 2 50 км 6/0
[Ac As]
+0.6 +0.1 96 -3 -3 1024.2 1001.8 +2.6
21 13.11 ЮВ 2 50 км в посл. час дождь 10/0 600 м
[As op]
+1.0 +0.5 96 -3 -3 1023.4 1001.1
00 14.11 Ю 2 10 км слабый дождь 10/0 600 м
[As op]
+3.1 +2.6 97 -0 -0 1022.0 999.8
06 14.11 З 4 20 км {ливн. осадки, дождь} 10/10 600 м
[Cb calv]
+4.5 +3.3 92 0 0 1023.1 1001.1 +0.5 0.7
09 14.11 З 3 20 км 10/10 600 м
[Cb calv]
+5.3 +1.5 76 +2 +2 1024.0 1001.9
12 14.11 З 3 20 км 10/10 600 м
[Cb calv]
+4.8 +2.0 82 +1 +1 1024.7 1002.6
18 14.11 штиль 0 50 км 10/10 600 м
[Sc]
+3.8 +1.2 83 +3 +3 1026.3 1004.0 +5.6 0.0
21 14.11 штиль 0 50 км 10/10 600 м
[Sc]
+3.5 +0.9 83 +3 +3 1026.5 1004.3
00 15.11 Ю 2 50 км 10/10 600 м
[Sc]
+2.9 +0.5 84 -0 -0 1027.1 1004.8
06 15.11 ЮВ 2 20 км 10/10 600 м
[Sc]
+3.7 -0.1 76 +1 +1 1026.9 1004.7 +2.3
09 15.11 ЮВ 2 20 км 10/10 600 м
[Sc]
+5.0 +3.3 89 +2 +2 1026.1 1004.0
12 15.11 Ю 3 20 км {морось} 10/10 600 м
[Sc]
+6.1 +5.2 94 +3 +3 1025.7 1003.7
18 15.11 Ю 4 50 км 10/10 600 м
[Sc]
+4.2 +3.0 92 -0 -0 1025.6 1003.4 +6.4 0.0
21 15.11 Ю 5 50 км 10/10 600 м
[Sc]
+3.8 +2.6 92 -1 -1 1024.3 1002.1
00 16.11 Ю 3 50 км 10/10 600 м
[Sc]
+3.6 +2.1 90 -0 -0 1023.7 1001.6
06 16.11 Ю 4 10 км слабый ливневой дождь 10/10 600 м
[Cb calv]
+4.5 +3.5 93 0 0 1020.8 998.8 +3.6
09 16.11 ЮЗ 5 10 км слабый ливневой дождь 10/10 600 м
[Cb calv]
+4.1 +3.9 99 -1 -1 1020.4 998.3
12 16.11 Ю 4 20 км {ливн. осадки} 10/10 600 м
[Cb calv]
+4.4 +4.2 99 -0 -0 1020.6 998.5
18 16.11 З 3 50 км {ливн. осадки} 10/10 600 м
[Sc]
+1.0 -0.4 90 -4 -4 1022.7 1000.3 +4.7 4
21 16.11 З 2 50 км 10/10 600 м
[Sc]
+0.1 -3.3 78 -3 -3 1023.0 1000.6
00 17.11 штиль 0 50 км 3/0
[Ac trans]
-1.4 -3.7 84 -3 -3 1022.9 1000.4
06 17.11 ЮЗ 3 20 км 9/0
[Ac cast Ci]
-0.5 -2.9 84 -5 -5 1022.1 999.6 -3.1
09 17.11 ЮЗ 3 20 км 10/10 600 м
[Cb calv]
+1.8 -2.6 73 -2 -2 1021.1 998.9
12 17.11 ЮЗ 3 20 км {ливн. осадки} 10/10 600 м
[Cb calv]
+1.4 -0.9 85 -3 -3 1020.6 998.3

 

Местоположение метеостанции Мартук (Актюбинская область, Казахстан): широта 50.75 долгота 56.53 высота над уровнем моря 178 м.

В архиве по умолчанию представлена погода в Мартуке за последнюю неделю. Архивные данные за месяц целиком и за предыдущие месяцы, начиная с января 2011 года, Вы можете получить, выбрав интересующий диапазон дат из раскрывающегося списка и нажав кнопку "Ввод!".

Внимание! Время в таблицах - всемирное. Для получения местного времени необходимо прибавить поправку, которая в Мартуке равна 5 ч.

Смотрите также архив погоды в соседних городах и на ближайших метеорологических станциях:

Погода в Родниковке (Актюбинская область, Казахстан) (47 км)
Погода в Актобе (Актюбинская область, Казахстан) (68 км)
Погода в Акбулаке (Оренбургская область, Россия) (70 км)
Погода в Беляевке (Оренбургская область, Россия) (75 км)
Погода в Каралаатсае (Актюбинская область, Казахстан) (88 км)
Погода в Новоалексеевке (Костанайская область, Казахстан) (91 км)
Погода в Кос-Истеке (Актюбинская область, Казахстан) (96 км)
Погода в Кувандыке (Оренбургская область, Россия) (99 км)
Погода в Соль-Илецк (Оренбургская область, Россия) (115 км)
Погода в Акжаре (Актюбинская область, Казахстан) (119 км)

Пояснения к столбцам:

Ветер - указаны скорость ветра в м/с - средняя за 10 мин, порывы в срок и между сроками (в фигурных скобках) и направление, откуда дует ветер: С - северный, СВ - северо-восточный, В - восточный, ЮВ - юго-восточный, Ю - южный, ЮЗ - юго-западный, З - западный, СЗ - северо-западный.
Видимость - горизонтальная дальность видимости в метрах или километрах. При видимости от 1 до 10 км при отсутствии осадков обычно наблюдается дымка, при ухудшении видимости до 1 км и менее - туман. В сухую погоду видимость может ухудшаться дымом, пылью или мглою.
Явления - указаны атмосферные явления, наблюдавшиеся в срок или в последний час перед сроком; фигурными скобками обозначены явления, наблюдавшиеся между сроками (за 1-3 часа до срока); квадратными скобками обозначены град или гололедные отложения с указанием их диаметра в мм.
Облачность - указаны через наклонную черту общая и нижняя облачность в баллах и высота нижней границы облаков в метрах; квадратными скобками обозначены формы облаков: Ci - перистые, Cs - перисто-слоистые, Cc - перисто-кучевые, Ac - высококучевые, As - высокослоистые, Sc - слоисто-кучевые, Ns - слоисто-дождевые, Cu - кучевые, Cb - кучево-дождевые. Подробнее классификацию облаков см. в Атласе облаков (PDF).
T - Температура воздуха - температура, измеренная на высоте 2 м над землей.
Td - Температура точки росы - температура, при понижении до которой содержащийся в воздухе водяной пар достигнет насыщения.
f - Относительная влажность воздуха - влажноcть воздуха, измеренная на высоте 2 м над землей.
Te - Эффективная температура - температура, которую ощущает одетый по сезону человек в тени. Характеристика душности погоды. При расчете учитывается влияние влажности воздуха и скорости ветра на теплоощущения человека.
Tes - Эффективная температура на солнце - температура, которую ощущает человек, с поправкой на солнечный нагрев. Характеристика знойности погоды. Зависит от высоты солнца над горизонтом, облачности и скорости ветра. Ночью, в пасмурную погоду, а также при ветре 12 м/с и более поправка равна нулю.
P - Атмосферное давление - приведенное к уровню моря атмосферное давление.
Po - Атмосферное давление - измеренное на уровне метеостанции атмосферное давление.
Tmin - Минимальная температура - минимум температуры воздуха на высоте 2 м над землей.
Tmax - Максимальная температура - максимум температуры воздуха на высоте 2 м над землей.
R - Количество осадков - Количество выпавших осадков за период времени, мм. При наведении курсора мыши на число - период времени, за который выпало указанное количество осадков.
R24 - Количество осадков - Количество выпавших осадков за 24 часа, мм.
S - Снежный покров - Высота снежного покрова, см. При наведении курсора мыши на число - состояние снежного покрова и степень покрытия местности в баллах.